This demonstration page uses our WeatherBlox Daily Observations layout. Learn more.

Left ArrowRight Arrow

Hourly Observations for November 11, 2015

Temp ( °F °C ) Dew Point ( °F °C ) Humidity (%) Winds ( mph kmh ) Pressure ( in mb ) Visibility ( mi km ) Precip ( " mm )
12:53 am 00:53 Clear 57 13.9 55 12.8 93 93 SSE 9 15 29.76 1008 8 13 0.00 0.00
1:53 am 01:53 Clear with Mist and Fog 56 13.3 54 12.2 93 93 SSE 7 11 29.75 1008 6 10 0.00 0.00
2:53 am 02:53 Mostly Clear with Mist and Fog 56 13.3 54 12.2 93 93 SE 7 11 29.75 1008 6 10 0.00 0.00
3:53 am 03:53 Mostly Clear with Mist and Fog 56 13.3 55 12.8 97 97 SE 6 9 29.75 1007 5 8 0.00 0.00
4:53 am 04:53 Mostly Clear with Mist and Fog 54 12.2 52 11.1 93 93 NNW 7 11 29.77 1008 6 10 0.00 0.00
5:53 am 05:53 undefined 56 13.3 47 8.3 72 72 WNW 8 13 29.80 1009 10 16 0.00 0.00
6:53 am 06:53 Clear 54 12.2 41 5 62 62 WNW 10 17 29.83 1010 10 16 0.00 0.00
7:53 am 07:53 Sunny 52 11.1 40 4.4 64 64 WNW 6 9 29.88 1012 10 16 0.00 0.00
8:53 am 08:53 Sunny 57 13.9 38 3.3 49 49 W 9 15 29.93 1014 10 16 0.00 0.00
9:53 am 09:53 Sunny 57 13.9 42 5.6 58 58 SSW 7 11 29.96 1015 10 16 0.00 0.00
10:53 am 10:53 Sunny 59 15 38 3.3 46 46 SW 14 22 29.95 1014 10 16 0.00 0.00
11:53 am 11:53 Sunny 65 18.3 16 -8.9 15 15 NW 23 37 29.94 1014 10 16 0.00 0.00
12:53 pm 12:53 Sunny 67 19.4 13 -10.6 12 12 WNW 17 28 29.93 1014 10 16 0.00 0.00
1:53 pm 13:53 Sunny 68 20 11 -11.7 11 11 WNW 16 26 29.91 1013 10 16 0.00 0.00
2:53 pm 14:53 Sunny 69 20.6 17 -8.3 14 14 SW 12 19 29.90 1013 10 16 0.00 0.00
3:53 pm 15:53 Sunny 67 19.4 16 -8.9 14 14 W 10 17 29.91 1013 10 16 0.00 0.00
4:53 pm 16:53 Sunny 66 18.9 15 -9.4 14 14 WSW 14 22 29.91 1013 10 16 0.00 0.00
5:53 pm 17:53 Sunny 61 16.1 19 -7.2 20 20 W 10 17 29.94 1014 10 16 0.00 0.00
6:53 pm 18:53 Clear 58 14.4 18 -7.8 21 21 WSW 7 11 29.98 1015 10 16 0.00 0.00
7:53 pm 19:53 Clear 55 12.8 20 -6.7 25 25 WSW 9 15 30.02 1017 10 16 0.00 0.00
8:53 pm 20:53 Clear 51 10.6 22 -5.6 32 32 NW 9 15 30.04 1017 10 16 0.00 0.00
9:53 pm 21:53 Clear 49 9.4 23 -5 36 36 NW 6 9 30.06 1018 10 16 0.00 0.00
10:53 pm 22:53 Clear 45 7.2 24 -4.4 44 44 WNW 3 6 30.08 1019 10 16 0.00 0.00
11:53 pm 23:53 Clear 43 6.1 25 -3.9 49 49 NW 7 11 30.09 1019 10 16 0.00 0.00

Powered by AerisWeather